| time (UTC) | temp C | wind direction | speed KPH | gust KPH | rain 1hr cm | rain 24hr cm | rain mn cm | humidity % | barometer mb |
| 20260902165323 | 18 | 208 | 9.7 | 17.7 | 0.00 | 0.41 | 0.13 | 79 | 1016.2 |
| 20260902164318 | 19 | 209 | 6.4 | 16.1 | 0.00 | 0.41 | 0.13 | 77 | 1016.1 |
| 20260902163754 | 19 | 265 | 9.7 | 19.3 | 0.00 | 0.41 | 0.13 | 75 | 1016.2 |
| 20260902162311 | 19 | 275 | 11.3 | 29.0 | 0.00 | 0.41 | 0.13 | 74 | 1016.3 |
| 20260902161308 | 20 | 274 | 9.7 | 25.7 | 0.00 | 0.41 | 0.13 | 73 | 1016.3 |
| 20260902160744 | 20 | 242 | 14.5 | 20.9 | 0.00 | 0.41 | 0.13 | 71 | 1016.4 |
| 20260902155307 | 20 | 283 | 9.7 | 20.9 | 0.00 | 0.41 | 0.13 | 71 | 1016.3 |
| 20260902154756 | 20 | 263 | 9.7 | 17.7 | 0.00 | 0.41 | 0.13 | 69 | 1016.3 |
| 20260902153304 | 20 | 204 | 11.3 | 19.3 | 0.00 | 0.41 | 0.13 | 70 | 1016.3 |
| 20260902152301 | 20 | 254 | 9.7 | 22.5 | 0.00 | 0.41 | 0.13 | 71 | 1016.6 |
| 20260902151303 | 21 | 236 | 12.9 | 22.5 | 0.00 | 0.41 | 0.13 | 71 | 1016.4 |
| 20260902150302 | 20 | 272 | 11.3 | 19.3 | 0.00 | 0.41 | 0.13 | 73 | 1016.3 |
| 20260902145258 | 20 | 267 | 14.5 | 32.2 | 0.00 | 0.41 | 0.13 | 69 | 1016.5 |
| 20260902144255 | 20 | 271 | 11.3 | 25.7 | 0.00 | 0.41 | 0.13 | 73 | 1016.4 |
| 20260902143252 | 20 | 261 | 11.3 | 25.7 | 0.00 | 0.41 | 0.13 | 73 | 1016.4 |
| 20260902142726 | 20 | 267 | 9.7 | 22.5 | 0.00 | 0.41 | 0.13 | 76 | 1016.3 |
| 20260902141245 | 19 | 272 | 3.2 | 14.5 | 0.00 | 0.58 | 0.13 | 79 | 1016.4 |
| 20260902140241 | 19 | 306 | 4.8 | 16.1 | 0.00 | 0.61 | 0.13 | 78 | 1016.3 |
| 20260902135237 | 20 | 205 | 8.0 | 19.3 | 0.00 | 0.61 | 0.13 | 73 | 1016.3 |
| 20260902134234 | 20 | 194 | 12.9 | 27.4 | 0.00 | 0.61 | 0.13 | 71 | 1016.4 |
| 20260902133235 | 20 | 258 | 6.4 | 25.7 | 0.00 | 0.61 | 0.13 | 73 | 1016.4 |
| 20260902132234 | 20 | 219 | 6.4 | 25.7 | 0.00 | 0.66 | 0.13 | 71 | 1016.5 |
| 20260902131232 | 20 | 157 | 12.9 | 25.7 | 0.00 | 0.66 | 0.13 | 71 | 1016.6 |
| 20260902130244 | 20 | 265 | 9.7 | 29.0 | 0.00 | 0.66 | 0.13 | 65 | 1016.5 |
| 20260902125241 | 20 | 259 | 9.7 | 30.6 | 0.00 | 0.66 | 0.13 | 71 | 1016.6 |
| 20260902124721 | 21 | 295 | 14.5 | 33.8 | 0.00 | 0.69 | 0.13 | 70 | 1016.5 |
| 20260902123234 | 20 | 285 | 12.9 | 22.5 | 0.00 | 0.69 | 0.13 | 70 | 1016.6 |
| 20260902122232 | 20 | 258 | 11.3 | 22.5 | 0.00 | 0.69 | 0.13 | 76 | 1016.6 |
| 20260902121233 | 20 | 274 | 14.5 | 22.5 | 0.00 | 0.69 | 0.13 | 75 | 1016.6 |
| 20260902120231 | 20 | 230 | 11.3 | 22.5 | 0.03 | 0.69 | 0.13 | 82 | 1016.7 |
| 20260902115722 | 19 | 270 | 6.4 | 19.3 | 0.10 | 0.61 | 0.13 | 82 | 1016.8 |
| 20260902114231 | 18 | 252 | 9.7 | 25.7 | 0.10 | 0.61 | 0.13 | 81 | 1016.7 |
| 20260902113231 | 18 | 282 | 9.7 | 17.7 | 0.10 | 0.61 | 0.13 | 83 | 1016.8 |
| 20260902112231 | 18 | 288 | 9.7 | 16.1 | 0.10 | 0.61 | 0.13 | 81 | 1016.8 |
| 20260902110232 | 19 | 307 | 8.0 | 25.7 | 0.08 | 0.61 | 0.10 | 78 | 1016.9 |
| 20260902105232 | 20 | 223 | 11.3 | 25.7 | 0.00 | 0.58 | 0.03 | 68 | 1016.7 |
| 20260902104233 | 20 | 252 | 6.4 | 25.7 | 0.00 | 0.58 | 0.03 | 74 | 1016.6 |
| 20260902103233 | 20 | 204 | 9.7 | 25.7 | 0.00 | 0.58 | 0.03 | 73 | 1016.8 |
| 20260902102231 | 20 | 221 | 12.9 | 29.0 | 0.00 | 0.58 | 0.03 | 75 | 1016.7 |
| 20260902101232 | 20 | 232 | 8.0 | 20.9 | 0.00 | 0.58 | 0.03 | 77 | 1016.8 |
| 20260902100231 | 20 | 186 | 9.7 | 22.5 | 0.00 | 0.58 | 0.03 | 78 | 1016.8 |
| 20260902095233 | 19 | 207 | 14.5 | 22.5 | 0.00 | 0.58 | 0.03 | 78 | 1016.9 |
| 20260902094231 | 18 | 247 | 11.3 | 19.3 | 0.00 | 0.58 | 0.03 | 76 | 1016.9 |
| 20260902093231 | 18 | 225 | 12.9 | 22.5 | 0.00 | 0.58 | 0.03 | 81 | 1017.0 |
| 20260902092232 | 17 | 170 | 6.4 | 25.7 | 0.00 | 0.58 | 0.03 | 83 | 1017.0 |
| 20260902091232 | 17 | 248 | 12.9 | 22.5 | 0.00 | 0.58 | 0.03 | 83 | 1017.0 |
| 20260902090243 | 17 | 198 | 8.0 | 20.9 | 0.00 | 0.58 | 0.03 | 85 | 1017.1 |
| 20260902085231 | 16 | 221 | 8.0 | 20.9 | 0.00 | 0.58 | 0.03 | 86 | 1017.0 |
| 20260902084717 | 16 | 188 | 8.0 | 20.9 | 0.00 | 0.58 | 0.03 | 88 | 1017.1 |
| 20260902083236 | 16 | 170 | 6.4 | 14.5 | 0.00 | 0.58 | 0.03 | 89 | 1017.0 |
| 20260902082232 | 15 | 235 | 9.7 | 17.7 | 0.00 | 0.58 | 0.03 | 88 | 1017.0 |
| 20260902081231 | 15 | 199 | 6.4 | 17.7 | 0.00 | 0.58 | 0.03 | 89 | 1016.9 |
| 20260902080235 | 15 | 207 | 8.0 | 14.5 | 0.00 | 0.58 | 0.03 | 90 | 1016.8 |
| 20260902075232 | 15 | 209 | 8.0 | 16.1 | 0.00 | 0.58 | 0.03 | 90 | 1016.8 |
| 20260902074231 | 15 | 215 | 9.7 | 17.7 | 0.00 | 0.61 | 0.03 | 91 | 1016.8 |
| 20260902073233 | 15 | 201 | 6.4 | 14.5 | 0.00 | 0.61 | 0.03 | 92 | 1016.8 |
| 20260902072232 | 15 | 202 | 6.4 | 14.5 | 0.00 | 0.61 | 0.03 | 92 | 1016.8 |
| 20260902071232 | 14 | 198 | 8.0 | 14.5 | 0.00 | 0.61 | 0.03 | 93 | 1016.9 |
| 20260902070231 | 14 | 178 | 6.4 | 14.5 | 0.00 | 0.61 | 0.03 | 94 | 1016.9 |
| 20260902065234 | 14 | 194 | 6.4 | 17.7 | 0.00 | 0.61 | 0.03 | 94 | 1017.0 |
| 20260902064232 | 14 | 189 | 6.4 | 14.5 | 0.00 | 0.61 | 0.03 | 95 | 1016.9 |
| 20260902063234 | 13 | 202 | 8.0 | 12.9 | 0.00 | 0.61 | 0.03 | 95 | 1016.9 |
| 20260902061231 | 13 | 199 | 3.2 | 14.5 | 0.00 | 0.61 | 0.03 | 95 | 1016.9 |
| 20260902060231 | 13 | 194 | 8.0 | 12.9 | 0.00 | 0.61 | 0.03 | 95 | 1016.9 |
| 20260902055233 | 13 | 200 | 4.8 | 14.5 | 0.00 | 0.61 | 0.03 | 95 | 1016.9 |
| 20260902054237 | 13 | 177 | 4.8 | 12.9 | 0.00 | 0.61 | 0.03 | 95 | 1016.9 |
| 20260902053231 | 13 | 205 | 4.8 | 12.9 | 0.00 | 0.61 | 0.03 | 96 | 1016.9 |
| 20260902052232 | 13 | 194 | 6.4 | 16.1 | 0.00 | 0.61 | 0.03 | 96 | 1016.9 |
| 20260902051231 | 13 | 192 | 6.4 | 16.1 | 0.00 | 0.61 | 0.03 | 96 | 1016.8 |
| 20260902050233 | 13 | 190 | 8.0 | 12.9 | 0.00 | 0.61 | 0.03 | 96 | 1016.8 |
| 20260902045706 | 13 | 185 | 4.8 | 8.0 | 0.00 | 0.61 | 0.03 | 96 | 1016.7 |
| 20260902044231 | 13 | 202 | 4.8 | 12.9 | 0.00 | 0.61 | 0.03 | 96 | 1016.7 |
| 20260902043231 | 13 | 196 | 6.4 | 11.3 | 0.00 | 0.61 | 0.03 | 96 | 1016.7 |
| 20260902042232 | 13 | 191 | 4.8 | 11.3 | 0.00 | 0.61 | 0.03 | 96 | 1016.8 |
| 20260902041231 | 13 | 194 | 3.2 | 14.5 | 0.00 | 0.61 | 0.03 | 96 | 1016.8 |
| 20260902040231 | 13 | 204 | 4.8 | 12.9 | 0.00 | 0.61 | 0.03 | 96 | 1016.8 |
| 20260902035233 | 13 | 194 | 4.8 | 11.3 | 0.00 | 0.61 | 0.03 | 96 | 1016.9 |
| 20260902034233 | 13 | 184 | 6.4 | 16.1 | 0.00 | 0.61 | 0.03 | 96 | 1017.0 |
| 20260902033233 | 13 | 179 | 6.4 | 12.9 | 0.00 | 0.61 | 0.03 | 96 | 1017.1 |
| 20260902032724 | 13 | 217 | 4.8 | 11.3 | 0.00 | 0.61 | 0.03 | 96 | 1017.0 |
| 20260902031232 | 13 | 201 | 4.8 | 11.3 | 0.00 | 0.61 | 0.03 | 96 | 1017.1 |
| 20260902025724 | 13 | 202 | 6.4 | 16.1 | 0.00 | 0.61 | 0.03 | 96 | 1017.1 |
| 20260902024233 | 13 | 190 | 8.0 | 17.7 | 0.00 | 0.61 | 0.03 | 96 | 1017.1 |
| 20260902023734 | 13 | 197 | 6.4 | 16.1 | 0.00 | 0.61 | 0.03 | 96 | 1017.1 |
| 20260902022233 | 13 | 171 | 6.4 | 12.9 | 0.00 | 0.61 | 0.03 | 96 | 1017.1 |
| 20260902021231 | 13 | 180 | 4.8 | 12.9 | 0.00 | 0.61 | 0.03 | 95 | 1017.1 |
| 20260902020234 | 13 | 198 | 6.4 | 14.5 | 0.00 | 0.61 | 0.03 | 95 | 1017.0 |
| 20260902015232 | 13 | 197 | 6.4 | 12.9 | 0.00 | 0.61 | 0.03 | 95 | 1016.9 |
| 20260902014231 | 13 | 192 | 6.4 | 12.9 | 0.00 | 0.61 | 0.03 | 95 | 1017.1 |
| 20260902013231 | 13 | 203 | 4.8 | 11.3 | 0.00 | 0.61 | 0.03 | 95 | 1017.0 |
| 20260902012232 | 13 | 213 | 4.8 | 11.3 | 0.00 | 0.61 | 0.03 | 95 | 1017.0 |
| 20260902011231 | 13 | 192 | 4.8 | 12.9 | 0.00 | 0.61 | 0.03 | 96 | 1017.0 |
| 20260902005232 | 13 | 198 | 4.8 | 11.3 | 0.00 | 0.61 | 0.03 | 96 | 1016.9 |
| 20260902004231 | 13 | 211 | 3.2 | 8.0 | 0.00 | 0.61 | 0.03 | 96 | 1016.9 |
| 20260902003232 | 13 | 223 | 3.2 | 4.8 | 0.00 | 0.61 | 0.03 | 96 | 1016.8 |
| 20260902002232 | 13 | 229 | 1.6 | 6.4 | 0.00 | 0.61 | 0.03 | 95 | 1016.9 |
| 20260902001233 | 13 | 240 | 3.2 | 4.8 | 0.00 | 0.61 | 0.03 | 96 | 1017.0 |
| 20260902000233 | 13 | 242 | 3.2 | 6.4 | 0.00 | 0.61 | 0.03 | 96 | 1017.1 |
| 20260901235232 | 13 | 243 | 1.6 | 4.8 | 0.00 | 0.61 | 0.03 | 96 | 1016.9 |
| 20260901234231 | 13 | 244 | 1.6 | 6.4 | 0.03 | 0.61 | 0.03 | 96 | 1017.2 |
| 20260901233231 | 13 | 248 | 0.0 | 0.0 | 0.03 | 0.64 | 0.03 | 96 | 1017.3 |
| 20260901232232 | 13 | 248 | 0.0 | 0.0 | 0.03 | 0.64 | 0.03 | 96 | 1017.2 |
| 20260901231232 | 13 | 248 | 0.0 | 0.0 | 0.03 | 0.64 | 0.03 | 96 | 1017.3 |
| 20260901230231 | 13 | 248 | 0.0 | 3.2 | 0.03 | 0.64 | 0.03 | 96 | 1017.4 |
| 20260901225233 | 13 | 248 | 1.6 | 4.8 | 0.03 | 0.61 | 0.03 | 96 | 1017.5 |
| 20260901224232 | 13 | 250 | 0.0 | 4.8 | 0.00 | 0.61 | 0.00 | 96 | 1017.5 |
| 20260901223231 | 13 | 252 | 0.0 | 6.4 | 0.00 | 0.61 | 0.00 | 96 | 1017.5 |
| 20260901222233 | 13 | 252 | 0.0 | 4.8 | 0.00 | 0.61 | 0.00 | 96 | 1017.6 |
| 20260901221231 | 13 | 254 | 1.6 | 4.8 | 0.00 | 0.61 | 0.00 | 96 | 1017.6 |
| 20260901220246 | 13 | 259 | 0.0 | 0.0 | 0.00 | 0.61 | 0.00 | 96 | 1017.6 |
| 20260901215238 | 13 | 259 | 0.0 | 0.0 | 0.00 | 0.61 | 0.61 | 96 | 1017.5 |
| 20260901214719 | 13 | 259 | 0.0 | 0.0 | 0.00 | 0.61 | 0.61 | 95 | 1017.5 |
| 20260901213234 | 14 | 259 | 0.0 | 0.0 | 0.00 | 0.64 | 0.61 | 95 | 1017.5 |
| 20260901212232 | 14 | 259 | 0.0 | 6.4 | 0.00 | 0.64 | 0.61 | 95 | 1017.5 |
| 20260901211231 | 14 | 254 | 4.8 | 8.0 | 0.00 | 0.64 | 0.61 | 95 | 1017.4 |
| 20260901210230 | 14 | 252 | 1.6 | 11.3 | 0.00 | 0.64 | 0.61 | 95 | 1017.3 |
| 20260901205232 | 14 | 262 | 1.6 | 6.4 | 0.13 | 0.61 | 0.61 | 95 | 1017.3 |
| 20260901204232 | 15 | 271 | 3.2 | 11.3 | 0.13 | 0.61 | 0.61 | 95 | 1017.4 |
| 20260901203719 | 15 | 266 | 3.2 | 11.3 | 0.13 | 0.61 | 0.61 | 95 | 1017.3 |
| 20260901202232 | 15 | 272 | 3.2 | 14.5 | 0.15 | 0.61 | 0.61 | 95 | 1017.3 |
| 20260901201232 | 15 | 269 | 8.0 | 17.7 | 0.15 | 0.61 | 0.61 | 95 | 1017.3 |
| 20260901200231 | 15 | 307 | 6.4 | 17.7 | 0.15 | 0.61 | 0.61 | 95 | 1017.3 |
| 20260901195232 | 15 | 248 | 4.8 | 12.9 | 0.03 | 0.51 | 0.51 | 95 | 1017.1 |
| 20260901194233 | 15 | 238 | 6.4 | 12.9 | 0.15 | 0.51 | 0.51 | 94 | 1016.9 |
| 20260901193231 | 15 | 231 | 4.8 | 12.9 | 0.15 | 0.51 | 0.51 | 94 | 1016.9 |
| 20260901192234 | 15 | 239 | 6.4 | 16.1 | 0.15 | 0.51 | 0.48 | 94 | 1016.8 |
| 20260901191232 | 15 | 277 | 8.0 | 20.9 | 0.15 | 0.51 | 0.48 | 93 | 1016.8 |
| 20260901190230 | 15 | 247 | 4.8 | 14.5 | 0.15 | 0.51 | 0.48 | 93 | 1016.7 |
| 20260901185227 | 15 | 289 | 9.7 | 19.3 | 0.15 | 0.36 | 0.48 | 91 | 1016.7 |
| 20260901184657 | 16 | 236 | 6.4 | 12.9 | 0.00 | 0.36 | 0.33 | 89 | 1016.5 |
| 20260901183223 | 16 | 259 | 6.4 | 19.3 | 0.00 | 0.36 | 0.33 | 88 | 1016.4 |
| 20260901182706 | 16 | 265 | 9.7 | 20.9 | 0.00 | 0.36 | 0.33 | 88 | 1016.2 |
| 20260901181218 | 16 | 309 | 4.8 | 20.9 | 0.00 | 0.36 | 0.33 | 89 | 1016.0 |
| 20260901180213 | 16 | 230 | 6.4 | 14.5 | 0.00 | 0.36 | 0.33 | 88 | 1016.0 |
| 20260901175208 | 16 | 269 | 6.4 | 16.1 | 0.00 | 0.36 | 0.33 | 86 | 1015.9 |
| 20260901174206 | 16 | 266 | 4.8 | 14.5 | 0.00 | 0.36 | 0.33 | 84 | 1015.9 |
| 20260901173204 | 16 | 253 | 9.7 | 25.7 | 0.00 | 0.36 | 0.33 | 82 | 1015.9 |
| 20260901172205 | 17 | 278 | 14.5 | 32.2 | 0.00 | 0.36 | 0.33 | 82 | 1015.8 |
| 20260901171204 | 17 | 248 | 6.4 | 14.5 | 0.00 | 0.36 | 0.33 | 84 | 1015.8 |
| 20260901170204 | 16 | 272 | 6.4 | 14.5 | 0.00 | 0.36 | 0.33 | 84 | 1015.8 |